Погода в Ато-Майор-дель-Рее

Доминиканская Республика     18°46′00″N   69°15′04″W
темп.,
°C
ветер,
м/с
пор.,
м/с
влажн.,
%
обл.,
%
осадки,
мм/ч
давл.,
гПа
погр.,
м
31 июля, сб
сб3123:00+24ссв249594 0.4 1019118
02:00+24св249552 0.4 1017115
05:00+23св22956 0.9 101736
08:00+26всв48855 0.9 1018568
11:00+31в566163 0.4 10181572
14:00+29в4569100 2.9 1017856
17:00+28всв4674100 2.4 1016652
20:00+25всв3686100 2.6 1018168
1 августа, вс
вс123:00+24всв2292100 0.0 101951
02:00+23св2294100 0.0 101744
05:00+23св2395100 0.1 101778
08:00+26в2583100 0.1 1019390
11:00+30вюв345818 0.0 10191524
14:00+34вюв354449 0.0 10172356
17:00+30в2463100 0.2 1017361
20:00+25всв3686100 0.5 1019190
2 августа, пн
пн223:00+24св2393100 0.0 102068
02:00+23ссв129491 0.0 101823
05:00+23всв229598 0.1 101833
08:00+26в368229 0.3 1019534
11:00+31в3554100 0.1 10181833
14:00+31всв2452100 0.4 10161295
17:00+28юв127091 3.1 1016279
20:00+24св348848 4.3 101780
3 августа, вт
вт323:00+23всв2393100 0.0 101872
02:00+23всв12935 0.0 101721
05:00+22всв11925 0.0 101717
08:00+25в12839 0.3 1018219
11:00+30юв355757 0.4 10171675
14:00+30ю3461100 1.6 1016721
17:00+29ю356499 1.3 1015908
20:00+25вюв36795 1.6 1017131
4 августа, ср
ср423:00+23в23925 0.0 101862
02:00+22всв22935 0.0 101722
05:00+22св11926 0.0 101715
08:00+25в24805 0.0 1018289
11:00+31вюв45505 0.1 10181837
14:00+34вюв354190 0.1 10162406
17:00+30в135795 0.3 1016476
20:00+25всв247754 0.4 1018108